Location: Trout Lake
(45.9980°N, 121.5270°W)
Time: 13:19:54
(UTC-07:00)

Daily predictions for brighter satellites

Satellite Brightness Start Highest point End
(mag) Time Altitude Azimuth Time Altitude Azimuth Time Altitude Azimuth
Cosmos 1892 Rocket 3.9 21:14:55 10° SSW 21:19:20 74° W 21:23:50 10° N
Cosmos 2251 Rocket 4.0 21:14:35 10° SSW 21:19:54 70° WNW 21:25:16 10° NNE
Abrixas rocket 3.4 21:17:42 10° W 21:20:51 33° SSW 21:23:58 10° SE
Meteor 1-23 Rocket 4.3 21:16:27 10° S 21:22:06 85° E 21:27:52 10° NNE
ATLAS 3B R/B 4.1 21:19:42 10° SSE 21:24:44 19° ESE 21:29:42 10° ENE
ERS-1 Rocket 3.4 21:20:05 10° S 21:25:04 67° WSW 21:30:06 10° NNW
Cosmos 1891 Rocket 4.5 21:21:09 10° N 21:27:21 78° E 21:33:24 10° SSE
Envisat 3.0 21:24:17 10° SSE 21:29:19 73° ENE 21:34:25 10° N
Nimbus 7 Rocket 4.5 21:24:04 10° NNE 21:30:01 64° ESE 21:35:52 10° S
Cosmos 1603 4.0 21:24:47 10° S 21:30:04 44° ESE 21:35:22 10° NE
Okean 2 3.7 21:27:33 10° SSW 21:31:44 76° W 21:35:56 10° N
Meteor 2-9 Rocket 4.5 21:26:25 10° NNW 21:32:05 77° W 21:37:52 10° S
ISS -1.7 21:37:28 10° S 21:39:30 15° SE 21:41:32 10° E
USA 234 3.4 21:33:30 10° ESE 21:40:05 85° NE 21:46:41 10° NW
YAOGAN 6 3.4 21:36:50 10° SE 21:40:15 38° ENE 21:43:45 10° N
CZ-2C R/B 3.3 21:39:08 10° SW 21:40:46 17° W 21:42:24 10° NW
Meteor 2-4 Rocket 4.3 21:35:42 10° SSW 21:41:31 68° WNW 21:47:28 10° N
Cosmos 2333 Rocket 4.5 21:39:09 10° WSW 21:44:04 30° NW 21:49:01 10° N
UNK 4.4 21:41:04 10° NNE 21:46:22 55° ESE 21:51:54 10° S
Cosmos 1461 3.5 21:47:08 10° NW 21:51:20 50° WSW 21:55:10 11° SSE
Cosmos 1943 4.0 21:49:48 10° SSE 21:54:39 30° ESE 21:59:33 10° NE
GRACE-1 4.2 21:52:41 10° N 21:55:33 69° W 21:58:24 10° S
Tsikada Rocket 4.1 21:49:15 10° S 21:55:39 81° E 22:02:03 10° N
CZ-4 SHROUD 3.9 21:52:48 10° S 21:55:52 52° W 21:58:59 10° NNW
GRACE-2 4.2 21:53:08 10° N 21:56:00 68° W 21:58:50 10° S
Cosmos 1238 4.3 21:55:12 10° S 21:58:15 54° E 22:01:12 10° NNE
SPOT 5 2.9 21:55:22 10° S 21:59:45 65° WSW 22:04:04 10° NNW
Cosmos 1943 Rocket 3.7 21:55:51 10° N 22:00:21 25° NE 22:04:51 10° ESE
SL-8 R/B 4.1 21:56:00 10° W 22:00:50 66° N 22:05:39 10° ENE
Cosmos 1602 Rocket 3.9 21:57:54 10° SSW 22:02:22 71° W 22:06:51 10° N
MetOp-A 4.2 21:58:10 10° SSE 22:03:31 83° WSW 22:08:55 10° NNW
Aureole 2 Rocket 3.8 22:00:02 10° SW 22:03:46 45° WNW 22:07:10 10° N
Cosmos 1992 Rocket 4.1 21:58:56 10° NNW 22:04:10 69° ENE 22:08:21 16° SSE
Cosmos 1825 Rocket 4.0 22:03:52 14° SSE 22:07:27 44° E 22:11:40 10° NNE
SL-08 RB Rocket 4.0 22:05:28 16° SE 22:08:55 53° ENE 22:13:20 10° N
Cosmos 1812 Rocket 3.9 22:06:07 10° NNW 22:10:29 66° W 22:14:49 10° S
H-2A R/B 2.9 22:09:27 16° SE 22:12:53 36° ENE 22:17:28 10° N
Lacrosse 5 4.1 22:08:48 10° WNW 22:13:04 26° NNW 22:17:20 10° NE
Geosat 4.5 22:15:51 10° NE 22:20:35 40° ESE 22:24:33 14° S
Terra 2.6 22:18:26 18° SE 22:21:27 38° ENE 22:25:50 10° N
SPOT 1/Viking Rocket 3.6 22:17:00 14° S 22:21:27 80° WSW 22:26:38 10° NNW
Cosmos 1190 Rocket 4.3 22:20:42 14° S 22:25:06 47° ESE 22:30:11 10° NNE
USA 245 4.4 22:20:44 13° S 22:26:12 74° WSW 22:31:22 10° NNW
CZ-4C R/B 3.5 22:24:35 21° SSE 22:27:19 70° ENE 22:31:23 10° N
SeaSat 1 3.7 22:26:57 11° S 22:31:17 33° WSW 22:35:45 10° NW
Cosmos 1634 Rocket 4.0 22:27:11 10° N 22:33:23 88° W 22:38:18 17° S
CZ-4B R/B 3.8 22:31:01 10° N 22:36:02 69° WNW 22:41:10 10° SSW
Cosmos 2369 Rocket 2.2 22:30:40 10° NNW 22:36:23 87° WSW 22:40:04 23° SSE
Atlas Centaur 2 3.9 22:31:30 10° SW 22:37:47 26° S 22:40:54 21° SE
ARGOS 3.3 22:33:35 17° S 22:37:48 73° WSW 22:43:15 10° NNW
Cosmos 1953 3.3 22:40:51 10° N 22:44:29 32° ENE 22:45:51 25° ESE
Lacrosse 5 rocket 3.8 22:44:00 10° WNW 22:47:18 24° NNW 22:50:44 10° NE
NOAA 11 4.5 22:46:21 19° S 22:50:18 63° WSW 22:55:42 10° NNW
Cosmos 1953 Rocket 3.6 22:49:50 20° S 22:52:51 84° W 22:57:19 10° N
Cosmos 489 Rocket 4.5 22:49:09 15° S 22:54:28 68° ESE 23:00:48 10° NNE
COSMOS 2455 3.2 22:49:40 10° SW 22:55:39 69° NW 23:01:41 10° NNE
Cosmos 2279 Rocket 4.0 22:51:33 10° N 22:57:50 85° E 23:01:43 25° S
IGS 5A 3.4 22:56:53 34° SSE 22:58:38 76° ENE 23:02:48 10° N
Cosmos 2084 4.3 22:56:14 10° NNW 23:00:09 42° NE 23:02:19 23° ESE
Cosmos 2263 4.2 22:54:46 10° NNW 23:00:24 78° WSW 23:03:27 28° SSE
Meteor 1-22 Rocket 4.5 22:55:25 10° NNW 23:00:54 66° W 23:04:39 22° S
SL-27 R/B 3.7 23:02:50 25° E 23:02:50 25° E 23:05:11 10° NE
COSMOS 2406 4.1 23:03:09 26° SE 23:04:32 29° ESE 23:09:24 10° NE
Cosmos 1346 Rocket 3.3 23:07:03 21° SSW 23:09:29 55° WNW 23:13:22 10° N
Cosmos-2242 3.0 23:06:04 10° N 23:10:30 79° E 23:12:08 38° SSE
Cosmos 407 Rocket 3.5 23:09:42 17° SSW 23:13:49 85° WNW 23:19:04 10° NNE
Lacrosse 4 Rocket 1.2 23:11:44 27° SSW 23:13:50 83° ESE 23:17:57 10° NNE
ATLAS 3B R/B 2.9 23:06:48 10° SSW 23:14:31 81° SE 23:22:02 10° NE
ISS -3.4 23:12:17 10° WSW 23:15:33 87° NNW 23:18:50 10° ENE
USA 234 4.3 23:20:29 22° S 23:23:32 31° SW 23:29:15 10° WNW
Cosmos 2208 Rocket 4.2 23:19:24 10° NNW 23:24:33 60° ENE 23:26:37 34° SE
CZ-4B R/B 3.8 23:24:39 14° E 23:25:33 15° ENE 23:27:40 10° NNE
Cosmos 1842 3.3 23:24:16 40° SSW 23:25:35 76° W 23:29:31 10° N
Cosmos 1544 3.8 23:22:29 10° N 23:26:03 40° ENE 23:26:33 38° E
Cosmos 1758 Rocket 4.5 23:24:22 19° SW 23:27:13 45° WNW 23:31:26 10° N
Cosmos 1758 3.3 23:25:28 10° N 23:29:36 82° W 23:30:40 49° S
CARTOSAT-1 4.4 23:28:45 28° SSW 23:30:29 42° W 23:34:37 10° NNW
Cosmos 1954 Rocket 3.9 23:30:10 30° SSW 23:32:53 83° ESE 23:38:13 10° NNE
Cosmos 1943 4.2 23:33:03 10° SW 23:38:29 46° WNW 23:43:59 10° NNE
ALOS 2 4.0 23:40:13 24° E 23:41:31 28° ENE 23:45:16 10° N
Spot 4 4.5 23:40:32 31° SSW 23:42:23 46° W 23:47:01 10° NNW
SL-8 R/B 3.7 23:38:49 10° WNW 23:43:40 80° NNE 23:46:26 26° E
Cosmos 1943 Rocket 2.3 23:39:04 10° NNW 23:44:33 63° WSW 23:46:33 38° S
USA 238 DEB 3.8 23:45:41 28° SSW 23:49:31 62° ESE 23:56:29 10° NE
USA 238 3.8 23:45:51 29° SSW 23:49:38 62° ESE 23:56:34 10° NE
Cosmos 1741 Rocket 4.1 23:48:30 44° SSE 23:49:54 59° ESE 23:55:09 10° NNE
H-2A R/B 3.3 23:50:05 21° SW 23:52:20 31° W 23:56:48 10° NNW
Cosmos 1842 Rocket 3.6 23:50:37 10° NNW 23:54:58 69° W 23:55:56 51° SSW
Cosmos 1733 3.5 23:51:30 10° N 23:55:18 51° ENE 23:55:34 50° E
